• In France
  • List of Countries
  • For 7 days
  • Water Temperature
  • Satellite Maps
  • Weather Map
  • Weather Widgets
  • user-avatar
    Login

    Hourly Weather Gimry

    Today, 19 October, Friday

    Time Temperature Precipitation Wind Pressure Humidity
    00:00 +15°C° 0 mm 2 mps 723 mmHg 67%
    01:00 +15°C° 0 mm 2 mps 723 mmHg 64%
    02:00 +14°C° 0 mm 2 mps 723 mmHg 61%
    03:00 +14°C° 0 mm 2 mps 722 mmHg 56%
    04:00 +14°C° 0 mm 2 mps 722 mmHg 54%
    05:00 +14°C° 0 mm 2 mps 722 mmHg 51%
    06:00 +14°C° 0 mm 2 mps 722 mmHg 49%
    07:00 +16°C° 0 mm 2 mps 723 mmHg 44%
    08:00 +18°C° 0 mm 2 mps 723 mmHg 39%
    09:00 +21°C° 0 mm 2 mps 723 mmHg 34%
    10:00 +23°C° 0 mm 2 mps 723 mmHg 33%
    11:00 +24°C° 0 mm 3 mps 723 mmHg 32%
    12:00 +25°C° 0 mm 3 mps 722 mmHg 31%
    13:00 +25°C° 0 mm 3 mps 722 mmHg 35%
    14:00 +24°C° 0 mm 3 mps 722 mmHg 40%
    15:00 +22°C° 0 mm 3 mps 722 mmHg 47%
    16:00 +20°C° 0 mm 3 mps 722 mmHg 57%
    17:00 +19°C° 0 mm 3 mps 722 mmHg 66%
    18:00 +17°C° 0 mm 2 mps 722 mmHg 76%
    19:00 +17°C° 0 mm 2 mps 722 mmHg 74%
    20:00 +16°C° 0 mm 2 mps 722 mmHg 72%
    21:00 +16°C° 0 mm 2 mps 721 mmHg 70%
    22:00 +16°C° 0 mm 2 mps 721 mmHg 68%
    23:00 +16°C° 0 mm 2 mps 721 mmHg 67%

    Tomorrow, 20 October, Saturday

    Time Temperature Precipitation Wind Pressure Humidity
    00:00 +14°C° 0 mm 3 mps 721 mmHg 65%
    01:00 +14°C° 0 mm 3 mps 721 mmHg 64%
    02:00 +14°C° 0 mm 3 mps 720 mmHg 63%
    03:00 +14°C° 0 mm 3 mps 720 mmHg 63%
    04:00 +15°C° 0 mm 2 mps 720 mmHg 60%
    05:00 +14°C° 0 mm 2 mps 720 mmHg 57%
    06:00 +14°C° 0 mm 2 mps 720 mmHg 54%
    07:00 +17°C° 0 mm 2 mps 720 mmHg 47%
    08:00 +19°C° 0 mm 2 mps 720 mmHg 40%
    09:00 +22°C° 0 mm 1 mps 720 mmHg 34%
    10:00 +23°C° 0 mm 2 mps 720 mmHg 33%
    11:00 +24°C° 0 mm 2 mps 720 mmHg 32%
    12:00 +25°C° 0 mm 2 mps 720 mmHg 31%
    13:00 +25°C° 0 mm 2 mps 719 mmHg 34%
    14:00 +24°C° 0 mm 2 mps 719 mmHg 37%
    15:00 +24°C° 0 mm 2 mps 719 mmHg 40%
    16:00 +21°C° 0 mm 2 mps 719 mmHg 49%
    17:00 +20°C° 0 mm 1 mps 719 mmHg 58%
    18:00 +18°C° 0 mm 1 mps 719 mmHg 67%
    19:00 +18°C° 0 mm 1 mps 719 mmHg 64%
    20:00 +18°C° 0 mm 1 mps 719 mmHg 61%
    21:00 +18°C° 0 mm 1 mps 719 mmHg 58%
    22:00 +18°C° 0 mm 1 mps 719 mmHg 56%
    23:00 +16°C° 0 mm 1 mps 719 mmHg 55%

    Day after tomorrow, 21 October, Sunday

    Time Temperature Precipitation Wind Pressure Humidity
    00:00 +16°C° 0 mm 1 mps 718 mmHg 53%
    01:00 +16°C° 0 mm 1 mps 718 mmHg 52%
    02:00 +16°C° 0 mm 1 mps 718 mmHg 52%
    03:00 +15°C° 0 mm 1 mps 718 mmHg 52%
    04:00 +15°C° 0 mm 1 mps 718 mmHg 51%
    05:00 +15°C° 0 mm 1 mps 718 mmHg 51%
    06:00 +15°C° 0 mm 1 mps 718 mmHg 51%
    07:00 +18°C° 0 mm 1 mps 719 mmHg 46%
    08:00 +20°C° 0 mm 1 mps 719 mmHg 41%
    09:00 +20°C° 0 mm 0 mps 719 mmHg 36%
    10:00 +23°C° 0 mm 1 mps 719 mmHg 36%
    11:00 +24°C° 0 mm 1 mps 719 mmHg 35%
    12:00 +25°C° 0 mm 2 mps 719 mmHg 34%
    13:00 +24°C° 0 mm 2 mps 719 mmHg 38%
    14:00 +24°C° 0 mm 2 mps 719 mmHg 42%
    15:00 +23°C° 0 mm 2 mps 719 mmHg 46%
    16:00 +21°C° 0 mm 2 mps 719 mmHg 54%
    17:00 +20°C° 0 mm 1 mps 719 mmHg 63%
    18:00 +19°C° 0 mm 1 mps 719 mmHg 71%
    19:00 +18°C° 0 mm 1 mps 719 mmHg 71%
    20:00 +18°C° 0 mm 1 mps 719 mmHg 71%
    21:00 +18°C° 0 mm 1 mps 719 mmHg 71%
    22:00 +18°C° 0 mm 1 mps 719 mmHg 71%
    23:00 +16°C° 0 mm 1 mps 719 mmHg 71%

    22 October, Monday

    Time Temperature Precipitation Wind Pressure Humidity
    00:00 +16°C° 0 mm 1 mps 719 mmHg 71%
    01:00 +16°C° 0 mm 1 mps 719 mmHg 70%
    02:00 +16°C° 0 mm 1 mps 718 mmHg 70%
    03:00 +15°C° 0 mm 1 mps 718 mmHg 69%
    04:00 +15°C° 0 mm 1 mps 718 mmHg 68%
    05:00 +15°C° 0 mm 1 mps 718 mmHg 67%
    06:00 +15°C° 0 mm 1 mps 718 mmHg 66%
    07:00 +18°C° 0 mm 1 mps 719 mmHg 62%
    08:00 +19°C° 0 mm 1 mps 719 mmHg 57%
    09:00 +21°C° 0 mm 1 mps 720 mmHg 52%
    10:00 +22°C° 0 mm 1 mps 720 mmHg 51%
    11:00 +23°C° 0 mm 2 mps 720 mmHg 50%
    12:00 +23°C° 0 mm 2 mps 720 mmHg 49%
    13:00 +23°C° 0 mm 2 mps 719 mmHg 52%
    14:00 +23°C° 0 mm 2 mps 719 mmHg 56%
    15:00 +21°C° 0 mm 2 mps 719 mmHg 59%
    16:00 +21°C° 0 mm 1 mps 720 mmHg 67%
    17:00 +19°C° 0 mm 1 mps 720 mmHg 75%
    18:00 +18°C° 0 mm 1 mps 720 mmHg 82%
    19:00 +18°C° 0 mm 1 mps 720 mmHg 84%
    20:00 +16°C° 0 mm 0 mps 720 mmHg 85%
    21:00 +15°C° 0 mm 0 mps 720 mmHg 86%
    22:00 +16°C° 0 mm 1 mps 720 mmHg 86%
    23:00 +16°C° 0 mm 1 mps 720 mmHg 85%

    23 October, Tuesday

    Time Temperature Precipitation Wind Pressure Humidity
    00:00 +16°C° 0 mm 1 mps 720 mmHg 85%
    01:00 +15°C° 0 mm 1 mps 720 mmHg 83%
    02:00 +15°C° 0 mm 1 mps 720 mmHg 81%
    03:00 +15°C° 0 mm 1 mps 720 mmHg 80%
    04:00 +15°C° 0 mm 1 mps 720 mmHg 77%
    05:00 +15°C° 0 mm 1 mps 720 mmHg 75%
    06:00 +15°C° 0 mm 1 mps 720 mmHg 73%
    07:00 +18°C° 0 mm 1 mps 720 mmHg 66%
    08:00 +19°C° 0 mm 1 mps 720 mmHg 59%
    09:00 +21°C° 0 mm 1 mps 720 mmHg 52%
    10:00 +22°C° 0 mm 1 mps 720 mmHg 50%
    11:00 +23°C° 0 mm 2 mps 720 mmHg 48%
    12:00 +24°C° 0 mm 2 mps 720 mmHg 47%
    13:00 +24°C° 0 mm 2 mps 719 mmHg 48%
    14:00 +23°C° 0 mm 2 mps 719 mmHg 50%
    15:00 +23°C° 0 mm 2 mps 719 mmHg 52%
    16:00 +21°C° 0 mm 2 mps 719 mmHg 60%
    17:00 +20°C° 0 mm 1 mps 719 mmHg 67%
    18:00 +18°C° 0 mm 1 mps 719 mmHg 75%
    19:00 +18°C° 0.1 mm 1 mps 719 mmHg 74%
    20:00 +18°C° 0.1 mm 1 mps 719 mmHg 73%
    21:00 +18°C° 0.1 mm 1 mps 718 mmHg 72%
    22:00 +18°C° 0 mm 1 mps 718 mmHg 70%
    23:00 +18°C° 0 mm 1 mps 718 mmHg 68%

    24 October, Wednesday

    Time Temperature Precipitation Wind Pressure Humidity
    00:00 +18°C° 0 mm 1 mps 718 mmHg 66%
    01:00 +18°C° 0 mm 1 mps 717 mmHg 65%
    02:00 +16°C° 0 mm 1 mps 717 mmHg 64%
    03:00 +16°C° 0 mm 1 mps 717 mmHg 62%
    04:00 +16°C° 0 mm 1 mps 717 mmHg 63%
    05:00 +16°C° 0 mm 1 mps 717 mmHg 63%
    06:00 +16°C° 0 mm 1 mps 717 mmHg 63%
    07:00 +18°C° 0 mm 1 mps 717 mmHg 58%
    08:00 +20°C° 0 mm 1 mps 717 mmHg 53%
    09:00 +22°C° 0 mm 1 mps 717 mmHg 48%
    10:00 +23°C° 0 mm 1 mps 717 mmHg 46%
    11:00 +24°C° 0 mm 2 mps 716 mmHg 43%
    12:00 +25°C° 0 mm 2 mps 716 mmHg 41%
    13:00 +25°C° 0 mm 2 mps 715 mmHg 43%
    14:00 +25°C° 0 mm 2 mps 715 mmHg 44%
    15:00 +24°C° 0 mm 2 mps 714 mmHg 45%
    16:00 +23°C° 0 mm 2 mps 714 mmHg 50%
    17:00 +20°C° 0 mm 2 mps 713 mmHg 56%
    18:00 +19°C° 0 mm 2 mps 713 mmHg 62%
    19:00 +19°C° 0 mm 2 mps 713 mmHg 60%
    20:00 +19°C° 0 mm 2 mps 712 mmHg 58%
    21:00 +19°C° 0 mm 2 mps 712 mmHg 56%
    22:00 +19°C° 0 mm 3 mps 711 mmHg 56%
    23:00 +19°C° 0 mm 3 mps 711 mmHg 56%
    Show more